Regional Weather Roundup
Issued by NWS Grand Forks, ND

Home | Current Version | Previous Version | Text Only | Print | Product List | Glossary On
Versions: 1 2 3 4 5 6 7 8 9 10 11 12 13 14 15 16 17 18 19 20 21 22 23 24 25 26 27 28 29 30 31 32 33 34 35 36 37 38 39 40 41 42 43 44 45 46 47 48 49 50
000
ASUS43 KFGF 221931
RWRFGF
PRAIRIE TO PINES  WEATHER ROUNDUP
NATIONAL WEATHER SERVICE EASTERN NORTH DAKOTA/GRAND FORKS ND
200 PM CDT MON SEP 22 2014

 **SATELLITE DATA USED TO AUGMENT SKY COVER AT AUTOMATED STATIONS**
 *****  WEATHER ACROSS EASTERN NORTH DAKOTA  *****

CITY           SKY/WX    TMP DP  RH WIND       PRES   REMARKS
GRAND FORKS    SUNNY     77  47  34 SW12      30.08F
GRAND FRKS AFB SUNNY     78  46  31 SW7       30.09F
GRAND FRKS NWS   N/A     79 N/A N/A W7          N/A
DEVILS LAKE    SUNNY     75  43  31 S12       30.05F
FARGO          SUNNY     75  47  36 SW13      30.12F
WAHPETON ARPT  CLEAR     73  41  31 W5        30.14F
$$

 ***** WEATHER ACROSS CENTRAL AND WESTERN NORTH DAKOTA  *****

CITY           SKY/WX    TMP DP  RH WIND       PRES   REMARKS
BISMARCK       SUNNY     81  45  28 SE20G26   30.02F
MINOT          SUNNY     78  44  29 SE13      30.00F
JAMESTOWN      SUNNY     75  44  33 S14       30.09F
MINOT AFB      SUNNY     77  45  32 S13       29.99F
GARRISON         N/A     76  49  38 SE10      30.00F
WILLISTON      SUNNY     80  42  25 S9        29.94F
DICKINSON      SUNNY     77  48  35 S17       29.96F
HETTINGER      PTSUNNY   77  47  34 SE16      29.98F
$$

 *****  OTHER AIRPORT OBSERVATIONS IN OUR AREA  *****

CITY           SKY/WX    TMP DP  RH WIND       PRES   REMARKS
WALHALLA       FAIR      77  45  31 SW10G16   30.04F
GRAFTON AIRPOR FAIR      75  46  35 SW7       30.06F
VALLEY CITY AR FAIR      73  46  38 S14       30.10F
CANDO          FAIR      75  46  35 S13G18    30.05F
CAVALIER APRT  FAIR      75  48  38 S12       30.04F
GWINNER        CLEAR     75  46  35 S15       30.13F
ROLLA            N/A     75  39  27 S14G20    30.05F
 ***** THE ABOVE OBSERVATIONS ARE NON NWS ARE NOT QUALITY
       CONTROLLED AND MAY MIS-REPORT RAIN FOR SNOW...
$$

  *****  WEATHER ACROSS NORTHERN MINNESOTA  *****

CITY           SKY/WX    TMP DP  RH WIND       PRES   REMARKS
FLAG ISLAND    MOSUNNY   72  46  40 W9G16     30.04S
WARROAD        SUNNY     73  54  49 W12       30.07F
ROSEAU         SUNNY     75  50  41 W12       30.07F
HALLOCK        SUNNY     75  46  35 SW10      30.05F
THF RVR FALLS  SUNNY     72  50  46 SW10      30.10F
BAUDETTE       SUNNY     72  47  40 VRB7G17   30.07F
WASKISH        SUNNY     70  54  56 SW5       30.11F
CROOKSTON      SUNNY     73  52  46 S14       30.10F
STEPHEN NDAWN    N/A     75  54  46 SW9         N/A
GREENBUSH NDAW   N/A     73  52  46 SW10        N/A
$$
  *****  WEATHER ACROSS CENTRAL AND WEST MINNESOTA  *****

CITY           SKY/WX    TMP DP  RH WIND       PRES   REMARKS
FOSSTON        SUNNY     73  55  53 SW10G18   30.13F
BEMIDJI        SUNNY     72  49  43 W9        30.13F
PARK RAPIDS    SUNNY     71  48  43 W10       30.16F
ELBOW LAKE     FAIR      71  49  46 SW7       30.16F
WADENA         SUNNY     70  48  46 SW8       30.17F
DETROIT LAKES  SUNNY     70  48  46 W8        30.17F
MOORHEAD       SUNNY     73  43  33 SW8       30.13F
FERGUS FALLS   SUNNY     73  43  33 W5        30.15F
MORRIS MN      SUNNY     73  50  43 S3        30.16F
STAPLES        SUNNY     70  46  43 W8        30.17F
$$
  *****  WEATHER ELSEWHERE ACROSS MINNESOTA  *****

CITY           SKY/WX    TMP DP  RH WIND       PRES   REMARKS
DULUTH         MOSUNNY   70  49  47 W17       30.14F
INTRNTL FALLS  SUNNY     71  49  45 W9G22     30.08F
ELY            SUNNY     70  48  46 W9        30.10F
CLOQUET        SUNNY     70  46  43 W13G20    30.15F
WHEATON        SUNNY     72  46  40 S9        30.16F
BRAINERD       SUNNY     69  49  48 W10       30.18F
HIBBING        SUNNY     71  49  45 SW8G17    30.13F
ALEXANDRIA     SUNNY     70  49  47 W9        30.20F
SAINT CLOUD    SUNNY     72  50  45 SW9       30.19F
MINNEAPOLIS    MOSUNNY   70  51  51 W8        30.22F
$$

  *****  WEATHER ACROSS SOUTH DAKOTA  *****

CITY           SKY/WX    TMP DP  RH WIND       PRES   REMARKS
SIOUX FALLS    PTSUNNY   71  47  42 S13       30.22F
BROOKINGS      NOT AVBL
WATERTOWN      SUNNY     72  46  39 S12G20    30.17F
HURON          PTSUNNY   74  46  36 S14       30.14F
SISSETON         N/A     74  46  36 MISG      30.14F
ABERDEEN       SUNNY     76  46  34 S12G21    30.12F
MITCHELL       MOSUNNY   74  47  38 S16       30.18F
PIERRE         MOSUNNY   80  46  30 S24G31    30.03F
MOBRIDGE       PTSUNNY  N/A N/A N/A SE17G24   30.02F
RAPID CITY     MOSUNNY   75  47  36 S22G29    29.98F
$$

  *****  SOME WEATHER IN NEARBY STATES *****

CITY           SKY/WX    TMP DP  RH WIND       PRES   REMARKS
GLASGOW MT     SUNNY     73  45  36 S8G17     29.89F
GREAT FALLS MT MOSUNNY   80  48  32 SW9       29.91F
CHEYENNE WY    LGT RAIN  61  50  67 W26G33    30.23R
SCOTTSBLUFF NE PTSUNNY   74  55  51 SE14G21   30.08F
OMAHA NE       MOSUNNY   71  49  45 S8        30.27F
DES MOINES IA  MOSUNNY   71  51  49 CALM      30.27F
DAVENPORT IA   SUNNY     68  42  38 CALM      30.28F
CHICAGO IL     SUNNY     61  40  45 W6        30.27F
EAU CLAIRE WI  MOSUNNY   68  51  54 W6        30.22F
LA CROSSE WI   MOSUNNY   71  51  49 VRB6      30.23F
$$

  *****  SOME NATIONAL WEATHER *****

CITY           SKY/WX    TMP DP  RH WIND       PRES   REMARKS
LA GUARDIA NY  PTSUNNY   71  46  40 W17G26    29.91R
RALEIGH NC     PTSUNNY   76  53  44 NW8       30.05R
ATLANTA GA     MOSUNNY   80  48  32 NW9G20    30.05F
NEW ORLEANS LA MOSUNNY   89  70  53 N12       30.00F HX  94
OKLAHOMA CITY  MOSUNNY   79  46  31 VRB6      30.25F
ALBUQUERQUE NM PTSUNNY   74  56  53 SW7       30.28F
SALT LAKE CITY MOSUNNY   75  49  39 S7G17     30.14F
LOS ANGELES CA MOSUNNY   72  63  73 W10       29.99F
BOISE ID       SUNNY     76  52  43 N3        30.06F
SEATTLE WA     PTSUNNY   68  56  65 S9        30.00F
$$

*** WEATHER ACROSS MANITOBA...SASKATCHEWAN AND ONTARIO ***
                ***ONTARIO***

CITY           SKY/WX    TMP DP  RH WIND       PRES   REMARKS
GERALDTON      PTSUNNY   63  52  67 SW12G18   29.91F
THUNDER BAY    SUNNY     73  50  43 W13G24    30.00
SIOUX LOOKOUT  MOSUNNY   72  50  46 W13G18    29.97F
TORONTO        PTSUNNY   57  39  51 W20       30.09R
BIG TROUT LK   CLOUDY    61  52  72 W5        29.84R
PICKLE LAKE    PTSUNNY   72  48  43 W15G21    29.85F
DRYDEN         SUNNY     72  50  46 SW15G21   30.00F
KENORA         MOSUNNY   70  48  46 W13       30.05
$$
                *** MANITOBA***

CITY           SKY/WX    TMP DP  RH WIND       PRES   REMARKS
BRANDON        MOSUNNY   75  46  35 SW10      30.01F
DAUPHIN        SUNNY     81  43  26 SW9       29.95F
ISLAND LAKE    MOSUNNY   68  55  64 CALM      29.89
PILOT MOUND      N/A     77  39  25 SW13G18     N/A
THE PAS        SUNNY     79  48  34 W7        29.86F
THOMPSON       MOSUNNY   64  50  59 E9        29.91R
WINNIPEG       MOSUNNY   77  46  33 SW10      30.02F
LYNN LAKE      SUNNY     68  50  52 E13       29.85F
CHURCHILL      CLOUDY    43  36  75 E9        30.07R
GILLAM         PTSUNNY   50  45  81 NE8       29.98R
$$
                ***SASKATCHEWAN***

CITY           SKY/WX    TMP DP  RH WIND       PRES   REMARKS
ESTEVAN        SUNNY     79  48  34 SE8       29.96F
KINDERSLEY     MOSUNNY   77  50  38 S10       29.81F
LLOYDMINSTER   MOSUNNY   73  48  40 S7        29.76S
PRINCE ALBERT  SUNNY     79  48  34 S10       29.81
REGINA         SUNNY     77  46  33 SE15G21   29.91F
YORKTON        SUNNY     75  41  29 S13       29.95F
N. BATTLEFORD  SUNNY     79  48  34 SE8       29.79F
LA RONGE       MOSUNNY   75  52  43 SE8       29.76F
SASKATOON      SUNNY     79  48  34 S9        29.83
SWIFT CURRENT  SUNNY     79  43  27 S15G24    29.84F
$$
NOTE: THESE ARE AUTOMATED STATIONS WITH LIMITED QUALITY CONTROL
      "FAIR" INDICATES FEW OR NO CLOUDS BELOW 12,000 FEET WITH NO
      SIGNIFICANT WEATHER AND/OR OBSTRUCTIONS TO VISIBILITY.
      SKY/WX - SKY CONDITION AND SIGNIFICANT WEATHER.
      TMP - AIR TEMPERATURE.    DP   - DEWPOINT TEMPERATURE.
      RH  - RELATIVE HUMIDITY.  PRES - PRESSURE.
      HX  - HEAT INDEX.         WCI  - WIND CHILL INDEX.
$



USA.gov is the U.S. government's official web portal to all federal, state and local government web resources and services.